Index of /20260418/WXO-DD/model_rdps/10km/18/064
Name Last modified Size Description
Parent Directory -
20260418T18Z_MSC_RDPS_AbsoluteVorticity_IsbL-0250_RLatLon0.09_PT064H.grib2 2026-04-18 20:57 603K
20260418T18Z_MSC_RDPS_AbsoluteVorticity_IsbL-0500_RLatLon0.09_PT064H.grib2 2026-04-18 20:57 569K
20260418T18Z_MSC_RDPS_AbsoluteVorticity_IsbL-0700_RLatLon0.09_PT064H.grib2 2026-04-18 20:57 626K
20260418T18Z_MSC_RDPS_AbsoluteVorticity_IsbL-0850_RLatLon0.09_PT064H.grib2 2026-04-18 20:57 793K
20260418T18Z_MSC_RDPS_AirTemp_AGL-120m_RLatLon0.09_PT064H.grib2 2026-04-18 20:57 385K
20260418T18Z_MSC_RDPS_AirTemp_AGL-2m_RLatLon0.09_PT064H.grib2 2026-04-18 20:57 654K
20260418T18Z_MSC_RDPS_AirTemp_AGL-40m_RLatLon0.09_PT064H.grib2 2026-04-18 20:57 405K
20260418T18Z_MSC_RDPS_AirTemp_AGL-80m_RLatLon0.09_PT064H.grib2 2026-04-18 20:57 394K
20260418T18Z_MSC_RDPS_AirTemp_IsbL-0001_RLatLon0.09_PT064H.grib2 2026-04-18 20:57 293K
20260418T18Z_MSC_RDPS_AirTemp_IsbL-0005_RLatLon0.09_PT064H.grib2 2026-04-18 20:57 332K
20260418T18Z_MSC_RDPS_AirTemp_IsbL-0010_RLatLon0.09_PT064H.grib2 2026-04-18 20:57 305K
20260418T18Z_MSC_RDPS_AirTemp_IsbL-0020_RLatLon0.09_PT064H.grib2 2026-04-18 20:57 330K
20260418T18Z_MSC_RDPS_AirTemp_IsbL-0030_RLatLon0.09_PT064H.grib2 2026-04-18 20:57 348K
20260418T18Z_MSC_RDPS_AirTemp_IsbL-0050_RLatLon0.09_PT064H.grib2 2026-04-18 20:57 331K
20260418T18Z_MSC_RDPS_AirTemp_IsbL-0100_RLatLon0.09_PT064H.grib2 2026-04-18 20:57 435K
20260418T18Z_MSC_RDPS_AirTemp_IsbL-0150_RLatLon0.09_PT064H.grib2 2026-04-18 20:57 427K
20260418T18Z_MSC_RDPS_AirTemp_IsbL-0175_RLatLon0.09_PT064H.grib2 2026-04-18 20:57 424K
20260418T18Z_MSC_RDPS_AirTemp_IsbL-0200_RLatLon0.09_PT064H.grib2 2026-04-18 20:57 426K
20260418T18Z_MSC_RDPS_AirTemp_IsbL-0225_RLatLon0.09_PT064H.grib2 2026-04-18 20:57 421K
20260418T18Z_MSC_RDPS_AirTemp_IsbL-0250_RLatLon0.09_PT064H.grib2 2026-04-18 20:57 421K
20260418T18Z_MSC_RDPS_AirTemp_IsbL-0275_RLatLon0.09_PT064H.grib2 2026-04-18 20:57 399K
20260418T18Z_MSC_RDPS_AirTemp_IsbL-0300_RLatLon0.09_PT064H.grib2 2026-04-18 20:57 405K
20260418T18Z_MSC_RDPS_AirTemp_IsbL-0350_RLatLon0.09_PT064H.grib2 2026-04-18 20:57 422K
20260418T18Z_MSC_RDPS_AirTemp_IsbL-0400_RLatLon0.09_PT064H.grib2 2026-04-18 20:57 428K
20260418T18Z_MSC_RDPS_AirTemp_IsbL-0450_RLatLon0.09_PT064H.grib2 2026-04-18 20:57 401K
20260418T18Z_MSC_RDPS_AirTemp_IsbL-0500_RLatLon0.09_PT064H.grib2 2026-04-18 20:57 415K
20260418T18Z_MSC_RDPS_AirTemp_IsbL-0550_RLatLon0.09_PT064H.grib2 2026-04-18 20:57 436K
20260418T18Z_MSC_RDPS_AirTemp_IsbL-0600_RLatLon0.09_PT064H.grib2 2026-04-18 20:57 456K
20260418T18Z_MSC_RDPS_AirTemp_IsbL-0650_RLatLon0.09_PT064H.grib2 2026-04-18 20:57 471K
20260418T18Z_MSC_RDPS_AirTemp_IsbL-0700_RLatLon0.09_PT064H.grib2 2026-04-18 20:57 493K
20260418T18Z_MSC_RDPS_AirTemp_IsbL-0750_RLatLon0.09_PT064H.grib2 2026-04-18 20:57 535K
20260418T18Z_MSC_RDPS_AirTemp_IsbL-0800_RLatLon0.09_PT064H.grib2 2026-04-18 20:57 591K
20260418T18Z_MSC_RDPS_AirTemp_IsbL-0850_RLatLon0.09_PT064H.grib2 2026-04-18 20:57 642K
20260418T18Z_MSC_RDPS_AirTemp_IsbL-0875_RLatLon0.09_PT064H.grib2 2026-04-18 20:57 523K
20260418T18Z_MSC_RDPS_AirTemp_IsbL-0900_RLatLon0.09_PT064H.grib2 2026-04-18 20:57 527K
20260418T18Z_MSC_RDPS_AirTemp_IsbL-0925_RLatLon0.09_PT064H.grib2 2026-04-18 20:57 523K
20260418T18Z_MSC_RDPS_AirTemp_IsbL-0950_RLatLon0.09_PT064H.grib2 2026-04-18 20:57 526K
20260418T18Z_MSC_RDPS_AirTemp_IsbL-0970_RLatLon0.09_PT064H.grib2 2026-04-18 20:57 529K
20260418T18Z_MSC_RDPS_AirTemp_IsbL-0985_RLatLon0.09_PT064H.grib2 2026-04-18 20:57 521K
20260418T18Z_MSC_RDPS_AirTemp_IsbL-1000_RLatLon0.09_PT064H.grib2 2026-04-18 20:57 507K
20260418T18Z_MSC_RDPS_AirTemp_IsbL-1015_RLatLon0.09_PT064H.grib2 2026-04-18 20:57 516K
20260418T18Z_MSC_RDPS_Albedo_Sfc_RLatLon0.09_PT064H.grib2 2026-04-18 20:57 164K
20260418T18Z_MSC_RDPS_CAPE_Sfc_RLatLon0.09_PT064H.grib2 2026-04-18 20:57 1.5M
20260418T18Z_MSC_RDPS_CIN_Sfc_RLatLon0.09_PT064H.grib2 2026-04-18 20:57 1.0M
20260418T18Z_MSC_RDPS_CloudWater_EAtm_RLatLon0.09_PT064H.grib2 2026-04-18 20:57 216K
20260418T18Z_MSC_RDPS_ConvectivePrecip-Accum_Sfc_RLatLon0.09_PT064H.grib2 2026-04-18 20:57 1.2M
20260418T18Z_MSC_RDPS_DewPointDepression_AGL-2m_RLatLon0.09_PT064H.grib2 2026-04-18 20:57 392K
20260418T18Z_MSC_RDPS_DewPointDepression_IsbL-0001_RLatLon0.09_PT064H.grib2 2026-04-18 20:57 193
20260418T18Z_MSC_RDPS_DewPointDepression_IsbL-0005_RLatLon0.09_PT064H.grib2 2026-04-18 20:57 193
20260418T18Z_MSC_RDPS_DewPointDepression_IsbL-0010_RLatLon0.09_PT064H.grib2 2026-04-18 20:57 193
20260418T18Z_MSC_RDPS_DewPointDepression_IsbL-0020_RLatLon0.09_PT064H.grib2 2026-04-18 20:57 193
20260418T18Z_MSC_RDPS_DewPointDepression_IsbL-0030_RLatLon0.09_PT064H.grib2 2026-04-18 20:57 193
20260418T18Z_MSC_RDPS_DewPointDepression_IsbL-0050_RLatLon0.09_PT064H.grib2 2026-04-18 20:57 95K
20260418T18Z_MSC_RDPS_DewPointDepression_IsbL-0100_RLatLon0.09_PT064H.grib2 2026-04-18 20:57 125K
20260418T18Z_MSC_RDPS_DewPointDepression_IsbL-0150_RLatLon0.09_PT064H.grib2 2026-04-18 20:57 155K
20260418T18Z_MSC_RDPS_DewPointDepression_IsbL-0175_RLatLon0.09_PT064H.grib2 2026-04-18 20:57 188K
20260418T18Z_MSC_RDPS_DewPointDepression_IsbL-0200_RLatLon0.09_PT064H.grib2 2026-04-18 20:57 226K
20260418T18Z_MSC_RDPS_DewPointDepression_IsbL-0225_RLatLon0.09_PT064H.grib2 2026-04-18 20:57 255K
20260418T18Z_MSC_RDPS_DewPointDepression_IsbL-0250_RLatLon0.09_PT064H.grib2 2026-04-18 20:57 289K
20260418T18Z_MSC_RDPS_DewPointDepression_IsbL-0275_RLatLon0.09_PT064H.grib2 2026-04-18 20:57 300K
20260418T18Z_MSC_RDPS_DewPointDepression_IsbL-0300_RLatLon0.09_PT064H.grib2 2026-04-18 20:57 321K
20260418T18Z_MSC_RDPS_DewPointDepression_IsbL-0350_RLatLon0.09_PT064H.grib2 2026-04-18 20:57 333K
20260418T18Z_MSC_RDPS_DewPointDepression_IsbL-0400_RLatLon0.09_PT064H.grib2 2026-04-18 20:57 347K
20260418T18Z_MSC_RDPS_DewPointDepression_IsbL-0450_RLatLon0.09_PT064H.grib2 2026-04-18 20:57 359K
20260418T18Z_MSC_RDPS_DewPointDepression_IsbL-0500_RLatLon0.09_PT064H.grib2 2026-04-18 20:57 375K
20260418T18Z_MSC_RDPS_DewPointDepression_IsbL-0550_RLatLon0.09_PT064H.grib2 2026-04-18 20:57 392K
20260418T18Z_MSC_RDPS_DewPointDepression_IsbL-0600_RLatLon0.09_PT064H.grib2 2026-04-18 20:57 400K
20260418T18Z_MSC_RDPS_DewPointDepression_IsbL-0650_RLatLon0.09_PT064H.grib2 2026-04-18 20:57 394K
20260418T18Z_MSC_RDPS_DewPointDepression_IsbL-0700_RLatLon0.09_PT064H.grib2 2026-04-18 20:57 395K
20260418T18Z_MSC_RDPS_DewPointDepression_IsbL-0750_RLatLon0.09_PT064H.grib2 2026-04-18 20:57 416K
20260418T18Z_MSC_RDPS_DewPointDepression_IsbL-0800_RLatLon0.09_PT064H.grib2 2026-04-18 20:57 451K
20260418T18Z_MSC_RDPS_DewPointDepression_IsbL-0850_RLatLon0.09_PT064H.grib2 2026-04-18 20:57 469K
20260418T18Z_MSC_RDPS_DewPointDepression_IsbL-0875_RLatLon0.09_PT064H.grib2 2026-04-18 20:57 458K
20260418T18Z_MSC_RDPS_DewPointDepression_IsbL-0900_RLatLon0.09_PT064H.grib2 2026-04-18 20:57 450K
20260418T18Z_MSC_RDPS_DewPointDepression_IsbL-0925_RLatLon0.09_PT064H.grib2 2026-04-18 20:57 441K
20260418T18Z_MSC_RDPS_DewPointDepression_IsbL-0950_RLatLon0.09_PT064H.grib2 2026-04-18 20:57 436K
20260418T18Z_MSC_RDPS_DewPointDepression_IsbL-0970_RLatLon0.09_PT064H.grib2 2026-04-18 20:57 433K
20260418T18Z_MSC_RDPS_DewPointDepression_IsbL-0985_RLatLon0.09_PT064H.grib2 2026-04-18 20:57 432K
20260418T18Z_MSC_RDPS_DewPointDepression_IsbL-1000_RLatLon0.09_PT064H.grib2 2026-04-18 20:57 429K
20260418T18Z_MSC_RDPS_DewPointDepression_IsbL-1015_RLatLon0.09_PT064H.grib2 2026-04-18 20:57 419K
20260418T18Z_MSC_RDPS_DewPoint_AGL-2m_RLatLon0.09_PT064H.grib2 2026-04-18 20:57 313K
20260418T18Z_MSC_RDPS_DownwardLongwaveRadiationFlux-Accum_Sfc_RLatLon0.09_PT064H.grib2 2026-04-18 20:57 404K
20260418T18Z_MSC_RDPS_DownwardShortwaveRadiationFlux-Accum_NTAtm_RLatLon0.09_PT064H.grib2 2026-04-18 20:57 104K
20260418T18Z_MSC_RDPS_DownwardShortwaveRadiationFlux-Accum_Sfc_RLatLon0.09_PT064H.grib2 2026-04-18 20:57 581K
20260418T18Z_MSC_RDPS_FreezingRain-Accum1h_Sfc_RLatLon0.09_PT064H.grib2 2026-04-18 20:57 23K
20260418T18Z_MSC_RDPS_FreezingRain-Accum_Sfc_RLatLon0.09_PT064H.grib2 2026-04-18 20:57 134K
20260418T18Z_MSC_RDPS_GeopotentialHeight_IsbL-0001_RLatLon0.09_PT064H.grib2 2026-04-18 20:57 272K
20260418T18Z_MSC_RDPS_GeopotentialHeight_IsbL-0005_RLatLon0.09_PT064H.grib2 2026-04-18 20:57 240K
20260418T18Z_MSC_RDPS_GeopotentialHeight_IsbL-0010_RLatLon0.09_PT064H.grib2 2026-04-18 20:57 346K
20260418T18Z_MSC_RDPS_GeopotentialHeight_IsbL-0020_RLatLon0.09_PT064H.grib2 2026-04-18 20:57 315K
20260418T18Z_MSC_RDPS_GeopotentialHeight_IsbL-0030_RLatLon0.09_PT064H.grib2 2026-04-18 20:57 315K
20260418T18Z_MSC_RDPS_GeopotentialHeight_IsbL-0050_RLatLon0.09_PT064H.grib2 2026-04-18 20:57 350K
20260418T18Z_MSC_RDPS_GeopotentialHeight_IsbL-0100_RLatLon0.09_PT064H.grib2 2026-04-18 20:57 294K
20260418T18Z_MSC_RDPS_GeopotentialHeight_IsbL-0150_RLatLon0.09_PT064H.grib2 2026-04-18 20:57 234K
20260418T18Z_MSC_RDPS_GeopotentialHeight_IsbL-0175_RLatLon0.09_PT064H.grib2 2026-04-18 20:57 266K
20260418T18Z_MSC_RDPS_GeopotentialHeight_IsbL-0200_RLatLon0.09_PT064H.grib2 2026-04-18 20:57 268K
20260418T18Z_MSC_RDPS_GeopotentialHeight_IsbL-0225_RLatLon0.09_PT064H.grib2 2026-04-18 20:57 269K
20260418T18Z_MSC_RDPS_GeopotentialHeight_IsbL-0250_RLatLon0.09_PT064H.grib2 2026-04-18 20:57 270K
20260418T18Z_MSC_RDPS_GeopotentialHeight_IsbL-0275_RLatLon0.09_PT064H.grib2 2026-04-18 20:57 269K
20260418T18Z_MSC_RDPS_GeopotentialHeight_IsbL-0300_RLatLon0.09_PT064H.grib2 2026-04-18 20:57 268K
20260418T18Z_MSC_RDPS_GeopotentialHeight_IsbL-0350_RLatLon0.09_PT064H.grib2 2026-04-18 20:57 235K
20260418T18Z_MSC_RDPS_GeopotentialHeight_IsbL-0400_RLatLon0.09_PT064H.grib2 2026-04-18 20:57 232K
20260418T18Z_MSC_RDPS_GeopotentialHeight_IsbL-0450_RLatLon0.09_PT064H.grib2 2026-04-18 20:57 303K
20260418T18Z_MSC_RDPS_GeopotentialHeight_IsbL-0500_RLatLon0.09_PT064H.grib2 2026-04-18 20:57 298K
20260418T18Z_MSC_RDPS_GeopotentialHeight_IsbL-0550_RLatLon0.09_PT064H.grib2 2026-04-18 20:57 294K
20260418T18Z_MSC_RDPS_GeopotentialHeight_IsbL-0600_RLatLon0.09_PT064H.grib2 2026-04-18 20:57 290K
20260418T18Z_MSC_RDPS_GeopotentialHeight_IsbL-0650_RLatLon0.09_PT064H.grib2 2026-04-18 20:57 261K
20260418T18Z_MSC_RDPS_GeopotentialHeight_IsbL-0700_RLatLon0.09_PT064H.grib2 2026-04-18 20:57 259K
20260418T18Z_MSC_RDPS_GeopotentialHeight_IsbL-0750_RLatLon0.09_PT064H.grib2 2026-04-18 20:57 260K
20260418T18Z_MSC_RDPS_GeopotentialHeight_IsbL-0800_RLatLon0.09_PT064H.grib2 2026-04-18 20:57 352K
20260418T18Z_MSC_RDPS_GeopotentialHeight_IsbL-0850_RLatLon0.09_PT064H.grib2 2026-04-18 20:57 359K
20260418T18Z_MSC_RDPS_GeopotentialHeight_IsbL-0875_RLatLon0.09_PT064H.grib2 2026-04-18 20:57 360K
20260418T18Z_MSC_RDPS_GeopotentialHeight_IsbL-0900_RLatLon0.09_PT064H.grib2 2026-04-18 20:57 365K
20260418T18Z_MSC_RDPS_GeopotentialHeight_IsbL-0925_RLatLon0.09_PT064H.grib2 2026-04-18 20:57 367K
20260418T18Z_MSC_RDPS_GeopotentialHeight_IsbL-0950_RLatLon0.09_PT064H.grib2 2026-04-18 20:57 372K
20260418T18Z_MSC_RDPS_GeopotentialHeight_IsbL-0970_RLatLon0.09_PT064H.grib2 2026-04-18 20:57 376K
20260418T18Z_MSC_RDPS_GeopotentialHeight_IsbL-0985_RLatLon0.09_PT064H.grib2 2026-04-18 20:57 386K
20260418T18Z_MSC_RDPS_GeopotentialHeight_IsbL-1000_RLatLon0.09_PT064H.grib2 2026-04-18 20:57 400K
20260418T18Z_MSC_RDPS_GeopotentialHeight_IsbL-1015_RLatLon0.09_PT064H.grib2 2026-04-18 20:57 416K
20260418T18Z_MSC_RDPS_Humidex_Sfc_RLatLon0.09_PT064H.grib2 2026-04-18 20:57 2.4M
20260418T18Z_MSC_RDPS_IcePellets-Accum1h_Sfc_RLatLon0.09_PT064H.grib2 2026-04-18 20:57 3.3K
20260418T18Z_MSC_RDPS_IcePellets-Accum_Sfc_RLatLon0.09_PT064H.grib2 2026-04-18 20:57 44K
20260418T18Z_MSC_RDPS_KIndex_Sfc_RLatLon0.09_PT064H.grib2 2026-04-18 20:57 2.5M
20260418T18Z_MSC_RDPS_LatentHeatNetFlux_Sfc_RLatLon0.09_PT064H.grib2 2026-04-18 20:57 317K
20260418T18Z_MSC_RDPS_LiftedIndex-MU-VT_IsbL-0500_RLatLon0.09_PT064H.grib2 2026-04-18 20:57 2.4M
20260418T18Z_MSC_RDPS_NetLongwaveRadiationFlux-Accum_Sfc_RLatLon0.09_PT064H.grib2 2026-04-18 20:57 581K
20260418T18Z_MSC_RDPS_NetShortwaveRadiationFlux-Accum_Sfc_RLatLon0.09_PT064H.grib2 2026-04-18 20:57 594K
20260418T18Z_MSC_RDPS_PlanetaryBoundaryLayerHeight_Sfc_RLatLon0.09_PT064H.grib2 2026-04-18 20:57 1.1M
20260418T18Z_MSC_RDPS_Precip-Accum1h_Sfc_RLatLon0.09_PT064H.grib2 2026-04-18 20:57 1.3M
20260418T18Z_MSC_RDPS_Precip-Accum_Sfc_RLatLon0.09_PT064H.grib2 2026-04-18 20:57 2.0M
20260418T18Z_MSC_RDPS_PrecipRate_Sfc_RLatLon0.09_PT064H.grib2 2026-04-18 20:57 201K
20260418T18Z_MSC_RDPS_PrecipType-Instant_Sfc_RLatLon0.09_PT064H.grib2 2026-04-18 20:57 602K
20260418T18Z_MSC_RDPS_Pressure-Trend3h_Sfc_RLatLon0.09_PT064H.grib2 2026-04-18 20:57 1.2M
20260418T18Z_MSC_RDPS_Pressure_MSL_RLatLon0.09_PT064H.grib2 2026-04-18 20:57 298K
20260418T18Z_MSC_RDPS_Pressure_PVU-1.5_RLatLon0.09_PT064H.grib2 2026-04-18 20:57 2.3M
20260418T18Z_MSC_RDPS_Pressure_PVU-1_RLatLon0.09_PT064H.grib2 2026-04-18 20:57 2.4M
20260418T18Z_MSC_RDPS_Pressure_PVU-2_RLatLon0.09_PT064H.grib2 2026-04-18 20:57 2.4M
20260418T18Z_MSC_RDPS_Pressure_Sfc_RLatLon0.09_PT064H.grib2 2026-04-18 20:57 504K
20260418T18Z_MSC_RDPS_RadiativeTemp_Sfc_RLatLon0.09_PT064H.grib2 2026-04-18 20:57 315K
20260418T18Z_MSC_RDPS_Rain-Accum1h_Sfc_RLatLon0.09_PT064H.grib2 2026-04-18 20:57 652K
20260418T18Z_MSC_RDPS_Rain-Accum_Sfc_RLatLon0.09_PT064H.grib2 2026-04-18 20:57 1.7M
20260418T18Z_MSC_RDPS_RelativeHumidity_AGL-2m_RLatLon0.09_PT064H.grib2 2026-04-18 20:57 1.0M
20260418T18Z_MSC_RDPS_RelativeHumidity_IsbL-0010_RLatLon0.09_PT064H.grib2 2026-04-18 20:57 551K
20260418T18Z_MSC_RDPS_RelativeHumidity_IsbL-0020_RLatLon0.09_PT064H.grib2 2026-04-18 20:57 572K
20260418T18Z_MSC_RDPS_RelativeHumidity_IsbL-0030_RLatLon0.09_PT064H.grib2 2026-04-18 20:57 548K
20260418T18Z_MSC_RDPS_RelativeHumidity_IsbL-0050_RLatLon0.09_PT064H.grib2 2026-04-18 20:57 390K
20260418T18Z_MSC_RDPS_RelativeHumidity_IsbL-0100_RLatLon0.09_PT064H.grib2 2026-04-18 20:57 381K
20260418T18Z_MSC_RDPS_RelativeHumidity_IsbL-0150_RLatLon0.09_PT064H.grib2 2026-04-18 20:57 380K
20260418T18Z_MSC_RDPS_RelativeHumidity_IsbL-0175_RLatLon0.09_PT064H.grib2 2026-04-18 20:57 471K
20260418T18Z_MSC_RDPS_RelativeHumidity_IsbL-0200_RLatLon0.09_PT064H.grib2 2026-04-18 20:57 560K
20260418T18Z_MSC_RDPS_RelativeHumidity_IsbL-0225_RLatLon0.09_PT064H.grib2 2026-04-18 20:57 632K
20260418T18Z_MSC_RDPS_RelativeHumidity_IsbL-0250_RLatLon0.09_PT064H.grib2 2026-04-18 20:57 687K
20260418T18Z_MSC_RDPS_RelativeHumidity_IsbL-0275_RLatLon0.09_PT064H.grib2 2026-04-18 20:57 705K
20260418T18Z_MSC_RDPS_RelativeHumidity_IsbL-0300_RLatLon0.09_PT064H.grib2 2026-04-18 20:57 745K
20260418T18Z_MSC_RDPS_RelativeHumidity_IsbL-0350_RLatLon0.09_PT064H.grib2 2026-04-18 20:57 767K
20260418T18Z_MSC_RDPS_RelativeHumidity_IsbL-0400_RLatLon0.09_PT064H.grib2 2026-04-18 20:57 789K
20260418T18Z_MSC_RDPS_RelativeHumidity_IsbL-0450_RLatLon0.09_PT064H.grib2 2026-04-18 20:57 804K
20260418T18Z_MSC_RDPS_RelativeHumidity_IsbL-0500_RLatLon0.09_PT064H.grib2 2026-04-18 20:57 830K
20260418T18Z_MSC_RDPS_RelativeHumidity_IsbL-0550_RLatLon0.09_PT064H.grib2 2026-04-18 20:57 858K
20260418T18Z_MSC_RDPS_RelativeHumidity_IsbL-0600_RLatLon0.09_PT064H.grib2 2026-04-18 20:57 876K
20260418T18Z_MSC_RDPS_RelativeHumidity_IsbL-0650_RLatLon0.09_PT064H.grib2 2026-04-18 20:57 876K
20260418T18Z_MSC_RDPS_RelativeHumidity_IsbL-0700_RLatLon0.09_PT064H.grib2 2026-04-18 20:57 876K
20260418T18Z_MSC_RDPS_RelativeHumidity_IsbL-0750_RLatLon0.09_PT064H.grib2 2026-04-18 20:57 918K
20260418T18Z_MSC_RDPS_RelativeHumidity_IsbL-0800_RLatLon0.09_PT064H.grib2 2026-04-18 20:57 1.0M
20260418T18Z_MSC_RDPS_RelativeHumidity_IsbL-0850_RLatLon0.09_PT064H.grib2 2026-04-18 20:57 1.0M
20260418T18Z_MSC_RDPS_RelativeHumidity_IsbL-0875_RLatLon0.09_PT064H.grib2 2026-04-18 20:57 1.0M
20260418T18Z_MSC_RDPS_RelativeHumidity_IsbL-0900_RLatLon0.09_PT064H.grib2 2026-04-18 20:57 1.1M
20260418T18Z_MSC_RDPS_RelativeHumidity_IsbL-0925_RLatLon0.09_PT064H.grib2 2026-04-18 20:57 1.1M
20260418T18Z_MSC_RDPS_RelativeHumidity_IsbL-0950_RLatLon0.09_PT064H.grib2 2026-04-18 20:57 1.1M
20260418T18Z_MSC_RDPS_RelativeHumidity_IsbL-0970_RLatLon0.09_PT064H.grib2 2026-04-18 20:57 1.0M
20260418T18Z_MSC_RDPS_RelativeHumidity_IsbL-0985_RLatLon0.09_PT064H.grib2 2026-04-18 20:57 1.0M
20260418T18Z_MSC_RDPS_RelativeHumidity_IsbL-1000_RLatLon0.09_PT064H.grib2 2026-04-18 20:57 1.0M
20260418T18Z_MSC_RDPS_RelativeHumidity_IsbL-1015_RLatLon0.09_PT064H.grib2 2026-04-18 20:57 1.0M
20260418T18Z_MSC_RDPS_Runoff-Accum_Sfc_RLatLon0.09_PT064H.grib2 2026-04-18 20:57 66K
20260418T18Z_MSC_RDPS_SWEATIndex_Sfc_RLatLon0.09_PT064H.grib2 2026-04-18 20:57 2.4M
20260418T18Z_MSC_RDPS_SeeingIndex_EAtm_RLatLon0.09_PT064H.grib2 2026-04-18 20:57 1.0M
20260418T18Z_MSC_RDPS_SensibleHeatNetFlux_Sfc_RLatLon0.09_PT064H.grib2 2026-04-18 20:57 309K
20260418T18Z_MSC_RDPS_ShowalterIndex_IsbL-0500_RLatLon0.09_PT064H.grib2 2026-04-18 20:57 2.6M
20260418T18Z_MSC_RDPS_SkyTransparencyIndex_EAtm_RLatLon0.09_PT064H.grib2 2026-04-18 20:57 725K
20260418T18Z_MSC_RDPS_Snow-Accum1h_Sfc_RLatLon0.09_PT064H.grib2 2026-04-18 20:57 239K
20260418T18Z_MSC_RDPS_Snow-Accum_Sfc_RLatLon0.09_PT064H.grib2 2026-04-18 20:57 734K
20260418T18Z_MSC_RDPS_SnowDensity_Sfc_RLatLon0.09_PT064H.grib2 2026-04-18 20:57 179K
20260418T18Z_MSC_RDPS_SnowDepth_Sfc_RLatLon0.09_PT064H.grib2 2026-04-18 20:57 713K
20260418T18Z_MSC_RDPS_SoilTemp_DBS-0to10cm_RLatLon0.09_PT064H.grib2 2026-04-18 20:57 241K
20260418T18Z_MSC_RDPS_SoilTemp_Sfc_RLatLon0.09_PT064H.grib2 2026-04-18 20:57 293K
20260418T18Z_MSC_RDPS_SoilVolumetricIceContent_Sfc_RLatLon0.09_PT064H.grib2 2026-04-18 20:57 172K
20260418T18Z_MSC_RDPS_SoilVolumetricWaterContent_DBS-0to10cm_RLatLon0.09_PT064H.grib2 2026-04-18 20:57 251K
20260418T18Z_MSC_RDPS_SoilVolumetricWaterContent_DBS-0to1cm_RLatLon0.09_PT064H.grib2 2026-04-18 20:57 340K
20260418T18Z_MSC_RDPS_SpecificHumidity_AGL-120m_RLatLon0.09_PT064H.grib2 2026-04-18 20:57 475K
20260418T18Z_MSC_RDPS_SpecificHumidity_AGL-2m_RLatLon0.09_PT064H.grib2 2026-04-18 20:57 640K
20260418T18Z_MSC_RDPS_SpecificHumidity_AGL-40m_RLatLon0.09_PT064H.grib2 2026-04-18 20:57 481K
20260418T18Z_MSC_RDPS_SpecificHumidity_AGL-80m_RLatLon0.09_PT064H.grib2 2026-04-18 20:57 477K
20260418T18Z_MSC_RDPS_SpecificHumidity_IsbL-0001_RLatLon0.09_PT064H.grib2 2026-04-18 20:57 316K
20260418T18Z_MSC_RDPS_SpecificHumidity_IsbL-0005_RLatLon0.09_PT064H.grib2 2026-04-18 20:57 400K
20260418T18Z_MSC_RDPS_SpecificHumidity_IsbL-0010_RLatLon0.09_PT064H.grib2 2026-04-18 20:57 369K
20260418T18Z_MSC_RDPS_SpecificHumidity_IsbL-0020_RLatLon0.09_PT064H.grib2 2026-04-18 20:57 366K
20260418T18Z_MSC_RDPS_SpecificHumidity_IsbL-0030_RLatLon0.09_PT064H.grib2 2026-04-18 20:57 430K
20260418T18Z_MSC_RDPS_SpecificHumidity_IsbL-0050_RLatLon0.09_PT064H.grib2 2026-04-18 20:57 461K
20260418T18Z_MSC_RDPS_SpecificHumidity_IsbL-0100_RLatLon0.09_PT064H.grib2 2026-04-18 20:57 520K
20260418T18Z_MSC_RDPS_SpecificHumidity_IsbL-0150_RLatLon0.09_PT064H.grib2 2026-04-18 20:57 441K
20260418T18Z_MSC_RDPS_SpecificHumidity_IsbL-0175_RLatLon0.09_PT064H.grib2 2026-04-18 20:57 530K
20260418T18Z_MSC_RDPS_SpecificHumidity_IsbL-0200_RLatLon0.09_PT064H.grib2 2026-04-18 20:57 550K
20260418T18Z_MSC_RDPS_SpecificHumidity_IsbL-0225_RLatLon0.09_PT064H.grib2 2026-04-18 20:57 552K
20260418T18Z_MSC_RDPS_SpecificHumidity_IsbL-0250_RLatLon0.09_PT064H.grib2 2026-04-18 20:57 546K
20260418T18Z_MSC_RDPS_SpecificHumidity_IsbL-0275_RLatLon0.09_PT064H.grib2 2026-04-18 20:57 462K
20260418T18Z_MSC_RDPS_SpecificHumidity_IsbL-0300_RLatLon0.09_PT064H.grib2 2026-04-18 20:57 533K
20260418T18Z_MSC_RDPS_SpecificHumidity_IsbL-0350_RLatLon0.09_PT064H.grib2 2026-04-18 20:57 531K
20260418T18Z_MSC_RDPS_SpecificHumidity_IsbL-0400_RLatLon0.09_PT064H.grib2 2026-04-18 20:57 518K
20260418T18Z_MSC_RDPS_SpecificHumidity_IsbL-0450_RLatLon0.09_PT064H.grib2 2026-04-18 20:57 617K
20260418T18Z_MSC_RDPS_SpecificHumidity_IsbL-0500_RLatLon0.09_PT064H.grib2 2026-04-18 20:57 521K
20260418T18Z_MSC_RDPS_SpecificHumidity_IsbL-0550_RLatLon0.09_PT064H.grib2 2026-04-18 20:57 584K
20260418T18Z_MSC_RDPS_SpecificHumidity_IsbL-0600_RLatLon0.09_PT064H.grib2 2026-04-18 20:57 651K
20260418T18Z_MSC_RDPS_SpecificHumidity_IsbL-0650_RLatLon0.09_PT064H.grib2 2026-04-18 20:57 559K
20260418T18Z_MSC_RDPS_SpecificHumidity_IsbL-0700_RLatLon0.09_PT064H.grib2 2026-04-18 20:57 589K
20260418T18Z_MSC_RDPS_SpecificHumidity_IsbL-0750_RLatLon0.09_PT064H.grib2 2026-04-18 20:57 639K
20260418T18Z_MSC_RDPS_SpecificHumidity_IsbL-0800_RLatLon0.09_PT064H.grib2 2026-04-18 20:57 712K
20260418T18Z_MSC_RDPS_SpecificHumidity_IsbL-0850_RLatLon0.09_PT064H.grib2 2026-04-18 20:57 788K
20260418T18Z_MSC_RDPS_SpecificHumidity_IsbL-0875_RLatLon0.09_PT064H.grib2 2026-04-18 20:57 801K
20260418T18Z_MSC_RDPS_SpecificHumidity_IsbL-0900_RLatLon0.09_PT064H.grib2 2026-04-18 20:57 810K
20260418T18Z_MSC_RDPS_SpecificHumidity_IsbL-0925_RLatLon0.09_PT064H.grib2 2026-04-18 20:57 813K
20260418T18Z_MSC_RDPS_SpecificHumidity_IsbL-0950_RLatLon0.09_PT064H.grib2 2026-04-18 20:57 812K
20260418T18Z_MSC_RDPS_SpecificHumidity_IsbL-0970_RLatLon0.09_PT064H.grib2 2026-04-18 20:57 809K
20260418T18Z_MSC_RDPS_SpecificHumidity_IsbL-0985_RLatLon0.09_PT064H.grib2 2026-04-18 20:57 665K
20260418T18Z_MSC_RDPS_SpecificHumidity_IsbL-1000_RLatLon0.09_PT064H.grib2 2026-04-18 20:57 659K
20260418T18Z_MSC_RDPS_SpecificHumidity_IsbL-1015_RLatLon0.09_PT064H.grib2 2026-04-18 20:57 649K
20260418T18Z_MSC_RDPS_SpecificHumidity_Sfc_RLatLon0.09_PT064H.grib2 2026-04-18 20:57 286K
20260418T18Z_MSC_RDPS_StormRelativeHelicity_EtaL-10000_RLatLon0.09_PT064H.grib2 2026-04-18 20:57 1.2M
20260418T18Z_MSC_RDPS_StormSeverityIndex_EtaL-10000_RLatLon0.09_PT064H.grib2 2026-04-18 20:57 1.2M
20260418T18Z_MSC_RDPS_Thickness_IsbL-0850to0700_RLatLon0.09_PT064H.grib2 2026-04-18 20:57 254K
20260418T18Z_MSC_RDPS_Thickness_IsbL-1000to0500_RLatLon0.09_PT064H.grib2 2026-04-18 20:57 203K
20260418T18Z_MSC_RDPS_Thickness_IsbL-1000to0850_RLatLon0.09_PT064H.grib2 2026-04-18 20:57 263K
20260418T18Z_MSC_RDPS_TotalCloudCover_Sfc_RLatLon0.09_PT064H.grib2 2026-04-18 20:57 661K
20260418T18Z_MSC_RDPS_TotalTotalsIndex_Sfc_RLatLon0.09_PT064H.grib2 2026-04-18 20:57 2.5M
20260418T18Z_MSC_RDPS_UVIndex-ClearSky_Sfc_RLatLon0.09_PT064H.grib2 2026-04-18 20:57 120K
20260418T18Z_MSC_RDPS_UVIndex_Sfc_RLatLon0.09_PT064H.grib2 2026-04-18 20:57 225K
20260418T18Z_MSC_RDPS_UpwardLongwaveRadiationFlux_NTAtm_RLatLon0.09_PT064H.grib2 2026-04-18 20:57 485K
20260418T18Z_MSC_RDPS_UpwardShortwaveRadiationFlux_NTAtm_RLatLon0.09_PT064H.grib2 2026-04-18 20:57 178K
20260418T18Z_MSC_RDPS_VerticalVelocity_IsbL-0250_RLatLon0.09_PT064H.grib2 2026-04-18 20:57 567K
20260418T18Z_MSC_RDPS_VerticalVelocity_IsbL-0500_RLatLon0.09_PT064H.grib2 2026-04-18 20:57 560K
20260418T18Z_MSC_RDPS_VerticalVelocity_IsbL-0700_RLatLon0.09_PT064H.grib2 2026-04-18 20:57 617K
20260418T18Z_MSC_RDPS_VerticalVelocity_IsbL-0850_RLatLon0.09_PT064H.grib2 2026-04-18 20:57 704K
20260418T18Z_MSC_RDPS_VerticalWindShear_EtaL-6500_RLatLon0.09_PT064H.grib2 2026-04-18 20:57 1.2M
20260418T18Z_MSC_RDPS_WindChill_Sfc_RLatLon0.09_PT064H.grib2 2026-04-18 20:57 1.3M
20260418T18Z_MSC_RDPS_WindDir_AGL-10m_RLatLon0.09_PT064H.grib2 2026-04-18 20:57 1.0M
20260418T18Z_MSC_RDPS_WindDir_AGL-120m_RLatLon0.09_PT064H.grib2 2026-04-18 20:57 614K
20260418T18Z_MSC_RDPS_WindDir_AGL-40m_RLatLon0.09_PT064H.grib2 2026-04-18 20:57 649K
20260418T18Z_MSC_RDPS_WindDir_AGL-80m_RLatLon0.09_PT064H.grib2 2026-04-18 20:57 626K
20260418T18Z_MSC_RDPS_WindDir_IsbL-0001_RLatLon0.09_PT064H.grib2 2026-04-18 20:57 279K
20260418T18Z_MSC_RDPS_WindDir_IsbL-0005_RLatLon0.09_PT064H.grib2 2026-04-18 20:57 367K
20260418T18Z_MSC_RDPS_WindDir_IsbL-0010_RLatLon0.09_PT064H.grib2 2026-04-18 20:57 365K
20260418T18Z_MSC_RDPS_WindDir_IsbL-0020_RLatLon0.09_PT064H.grib2 2026-04-18 20:57 402K
20260418T18Z_MSC_RDPS_WindDir_IsbL-0030_RLatLon0.09_PT064H.grib2 2026-04-18 20:57 423K
20260418T18Z_MSC_RDPS_WindDir_IsbL-0050_RLatLon0.09_PT064H.grib2 2026-04-18 20:57 433K
20260418T18Z_MSC_RDPS_WindDir_IsbL-0100_RLatLon0.09_PT064H.grib2 2026-04-18 20:57 420K
20260418T18Z_MSC_RDPS_WindDir_IsbL-0150_RLatLon0.09_PT064H.grib2 2026-04-18 20:57 413K
20260418T18Z_MSC_RDPS_WindDir_IsbL-0175_RLatLon0.09_PT064H.grib2 2026-04-18 20:57 433K
20260418T18Z_MSC_RDPS_WindDir_IsbL-0200_RLatLon0.09_PT064H.grib2 2026-04-18 20:57 450K
20260418T18Z_MSC_RDPS_WindDir_IsbL-0225_RLatLon0.09_PT064H.grib2 2026-04-18 20:57 449K
20260418T18Z_MSC_RDPS_WindDir_IsbL-0250_RLatLon0.09_PT064H.grib2 2026-04-18 20:57 445K
20260418T18Z_MSC_RDPS_WindDir_IsbL-0275_RLatLon0.09_PT064H.grib2 2026-04-18 20:57 458K
20260418T18Z_MSC_RDPS_WindDir_IsbL-0300_RLatLon0.09_PT064H.grib2 2026-04-18 20:57 454K
20260418T18Z_MSC_RDPS_WindDir_IsbL-0350_RLatLon0.09_PT064H.grib2 2026-04-18 20:57 475K
20260418T18Z_MSC_RDPS_WindDir_IsbL-0400_RLatLon0.09_PT064H.grib2 2026-04-18 20:57 494K
20260418T18Z_MSC_RDPS_WindDir_IsbL-0450_RLatLon0.09_PT064H.grib2 2026-04-18 20:57 510K
20260418T18Z_MSC_RDPS_WindDir_IsbL-0500_RLatLon0.09_PT064H.grib2 2026-04-18 20:57 532K
20260418T18Z_MSC_RDPS_WindDir_IsbL-0550_RLatLon0.09_PT064H.grib2 2026-04-18 20:57 556K
20260418T18Z_MSC_RDPS_WindDir_IsbL-0600_RLatLon0.09_PT064H.grib2 2026-04-18 20:57 581K
20260418T18Z_MSC_RDPS_WindDir_IsbL-0650_RLatLon0.09_PT064H.grib2 2026-04-18 20:57 618K
20260418T18Z_MSC_RDPS_WindDir_IsbL-0700_RLatLon0.09_PT064H.grib2 2026-04-18 20:57 658K
20260418T18Z_MSC_RDPS_WindDir_IsbL-0750_RLatLon0.09_PT064H.grib2 2026-04-18 20:57 701K
20260418T18Z_MSC_RDPS_WindDir_IsbL-0800_RLatLon0.09_PT064H.grib2 2026-04-18 20:57 771K
20260418T18Z_MSC_RDPS_WindDir_IsbL-0850_RLatLon0.09_PT064H.grib2 2026-04-18 20:57 853K
20260418T18Z_MSC_RDPS_WindDir_IsbL-0875_RLatLon0.09_PT064H.grib2 2026-04-18 20:57 882K
20260418T18Z_MSC_RDPS_WindDir_IsbL-0900_RLatLon0.09_PT064H.grib2 2026-04-18 20:57 901K
20260418T18Z_MSC_RDPS_WindDir_IsbL-0925_RLatLon0.09_PT064H.grib2 2026-04-18 20:57 915K
20260418T18Z_MSC_RDPS_WindDir_IsbL-0950_RLatLon0.09_PT064H.grib2 2026-04-18 20:57 917K
20260418T18Z_MSC_RDPS_WindDir_IsbL-0970_RLatLon0.09_PT064H.grib2 2026-04-18 20:57 926K
20260418T18Z_MSC_RDPS_WindDir_IsbL-0985_RLatLon0.09_PT064H.grib2 2026-04-18 20:57 940K
20260418T18Z_MSC_RDPS_WindDir_IsbL-1000_RLatLon0.09_PT064H.grib2 2026-04-18 20:57 958K
20260418T18Z_MSC_RDPS_WindDir_IsbL-1015_RLatLon0.09_PT064H.grib2 2026-04-18 20:57 1.0M
20260418T18Z_MSC_RDPS_WindGust-Max_AGL-10m_RLatLon0.09_PT064H.grib2 2026-04-18 20:57 971K
20260418T18Z_MSC_RDPS_WindGust-Min_AGL-10m_RLatLon0.09_PT064H.grib2 2026-04-18 20:57 1.0M
20260418T18Z_MSC_RDPS_WindGust_AGL-10m_RLatLon0.09_PT064H.grib2 2026-04-18 20:57 1.0M
20260418T18Z_MSC_RDPS_WindSpeed_AGL-10m_RLatLon0.09_PT064H.grib2 2026-04-18 20:57 857K
20260418T18Z_MSC_RDPS_WindSpeed_AGL-120m_RLatLon0.09_PT064H.grib2 2026-04-18 20:57 563K
20260418T18Z_MSC_RDPS_WindSpeed_AGL-40m_RLatLon0.09_PT064H.grib2 2026-04-18 20:57 556K
20260418T18Z_MSC_RDPS_WindSpeed_AGL-80m_RLatLon0.09_PT064H.grib2 2026-04-18 20:57 555K
20260418T18Z_MSC_RDPS_WindSpeed_IsbL-0001_RLatLon0.09_PT064H.grib2 2026-04-18 20:57 243K
20260418T18Z_MSC_RDPS_WindSpeed_IsbL-0005_RLatLon0.09_PT064H.grib2 2026-04-18 20:57 297K
20260418T18Z_MSC_RDPS_WindSpeed_IsbL-0010_RLatLon0.09_PT064H.grib2 2026-04-18 20:57 311K
20260418T18Z_MSC_RDPS_WindSpeed_IsbL-0020_RLatLon0.09_PT064H.grib2 2026-04-18 20:57 334K
20260418T18Z_MSC_RDPS_WindSpeed_IsbL-0030_RLatLon0.09_PT064H.grib2 2026-04-18 20:57 333K
20260418T18Z_MSC_RDPS_WindSpeed_IsbL-0050_RLatLon0.09_PT064H.grib2 2026-04-18 20:57 480K
20260418T18Z_MSC_RDPS_WindSpeed_IsbL-0100_RLatLon0.09_PT064H.grib2 2026-04-18 20:57 494K
20260418T18Z_MSC_RDPS_WindSpeed_IsbL-0150_RLatLon0.09_PT064H.grib2 2026-04-18 20:57 380K
20260418T18Z_MSC_RDPS_WindSpeed_IsbL-0175_RLatLon0.09_PT064H.grib2 2026-04-18 20:57 405K
20260418T18Z_MSC_RDPS_WindSpeed_IsbL-0200_RLatLon0.09_PT064H.grib2 2026-04-18 20:57 425K
20260418T18Z_MSC_RDPS_WindSpeed_IsbL-0225_RLatLon0.09_PT064H.grib2 2026-04-18 20:57 449K
20260418T18Z_MSC_RDPS_WindSpeed_IsbL-0250_RLatLon0.09_PT064H.grib2 2026-04-18 20:57 448K
20260418T18Z_MSC_RDPS_WindSpeed_IsbL-0275_RLatLon0.09_PT064H.grib2 2026-04-18 20:57 461K
20260418T18Z_MSC_RDPS_WindSpeed_IsbL-0300_RLatLon0.09_PT064H.grib2 2026-04-18 20:57 457K
20260418T18Z_MSC_RDPS_WindSpeed_IsbL-0350_RLatLon0.09_PT064H.grib2 2026-04-18 20:57 471K
20260418T18Z_MSC_RDPS_WindSpeed_IsbL-0400_RLatLon0.09_PT064H.grib2 2026-04-18 20:57 474K
20260418T18Z_MSC_RDPS_WindSpeed_IsbL-0450_RLatLon0.09_PT064H.grib2 2026-04-18 20:57 459K
20260418T18Z_MSC_RDPS_WindSpeed_IsbL-0500_RLatLon0.09_PT064H.grib2 2026-04-18 20:57 464K
20260418T18Z_MSC_RDPS_WindSpeed_IsbL-0550_RLatLon0.09_PT064H.grib2 2026-04-18 20:57 469K
20260418T18Z_MSC_RDPS_WindSpeed_IsbL-0600_RLatLon0.09_PT064H.grib2 2026-04-18 20:57 600K
20260418T18Z_MSC_RDPS_WindSpeed_IsbL-0650_RLatLon0.09_PT064H.grib2 2026-04-18 20:57 618K
20260418T18Z_MSC_RDPS_WindSpeed_IsbL-0700_RLatLon0.09_PT064H.grib2 2026-04-18 20:57 686K
20260418T18Z_MSC_RDPS_WindSpeed_IsbL-0750_RLatLon0.09_PT064H.grib2 2026-04-18 20:57 718K
20260418T18Z_MSC_RDPS_WindSpeed_IsbL-0800_RLatLon0.09_PT064H.grib2 2026-04-18 20:57 723K
20260418T18Z_MSC_RDPS_WindSpeed_IsbL-0850_RLatLon0.09_PT064H.grib2 2026-04-18 20:57 779K
20260418T18Z_MSC_RDPS_WindSpeed_IsbL-0875_RLatLon0.09_PT064H.grib2 2026-04-18 20:57 799K
20260418T18Z_MSC_RDPS_WindSpeed_IsbL-0900_RLatLon0.09_PT064H.grib2 2026-04-18 20:57 812K
20260418T18Z_MSC_RDPS_WindSpeed_IsbL-0925_RLatLon0.09_PT064H.grib2 2026-04-18 20:57 822K
20260418T18Z_MSC_RDPS_WindSpeed_IsbL-0950_RLatLon0.09_PT064H.grib2 2026-04-18 20:57 872K
20260418T18Z_MSC_RDPS_WindSpeed_IsbL-0970_RLatLon0.09_PT064H.grib2 2026-04-18 20:57 874K
20260418T18Z_MSC_RDPS_WindSpeed_IsbL-0985_RLatLon0.09_PT064H.grib2 2026-04-18 20:57 869K
20260418T18Z_MSC_RDPS_WindSpeed_IsbL-1000_RLatLon0.09_PT064H.grib2 2026-04-18 20:57 868K
20260418T18Z_MSC_RDPS_WindSpeed_IsbL-1015_RLatLon0.09_PT064H.grib2 2026-04-18 20:57 859K
20260418T18Z_MSC_RDPS_WindU_AGL-10m_RLatLon0.09_PT064H.grib2 2026-04-18 20:57 440K
20260418T18Z_MSC_RDPS_WindU_AGL-120m_RLatLon0.09_PT064H.grib2 2026-04-18 20:57 428K
20260418T18Z_MSC_RDPS_WindU_AGL-40m_RLatLon0.09_PT064H.grib2 2026-04-18 20:57 550K
20260418T18Z_MSC_RDPS_WindU_AGL-80m_RLatLon0.09_PT064H.grib2 2026-04-18 20:57 430K
20260418T18Z_MSC_RDPS_WindU_IsbL-0001_RLatLon0.09_PT064H.grib2 2026-04-18 20:57 236K
20260418T18Z_MSC_RDPS_WindU_IsbL-0005_RLatLon0.09_PT064H.grib2 2026-04-18 20:57 288K
20260418T18Z_MSC_RDPS_WindU_IsbL-0010_RLatLon0.09_PT064H.grib2 2026-04-18 20:57 345K
20260418T18Z_MSC_RDPS_WindU_IsbL-0020_RLatLon0.09_PT064H.grib2 2026-04-18 20:57 364K
20260418T18Z_MSC_RDPS_WindU_IsbL-0030_RLatLon0.09_PT064H.grib2 2026-04-18 20:57 330K
20260418T18Z_MSC_RDPS_WindU_IsbL-0050_RLatLon0.09_PT064H.grib2 2026-04-18 20:57 364K
20260418T18Z_MSC_RDPS_WindU_IsbL-0100_RLatLon0.09_PT064H.grib2 2026-04-18 20:57 448K
20260418T18Z_MSC_RDPS_WindU_IsbL-0150_RLatLon0.09_PT064H.grib2 2026-04-18 20:57 398K
20260418T18Z_MSC_RDPS_WindU_IsbL-0175_RLatLon0.09_PT064H.grib2 2026-04-18 20:57 420K
20260418T18Z_MSC_RDPS_WindU_IsbL-0200_RLatLon0.09_PT064H.grib2 2026-04-18 20:57 437K
20260418T18Z_MSC_RDPS_WindU_IsbL-0225_RLatLon0.09_PT064H.grib2 2026-04-18 20:57 441K
20260418T18Z_MSC_RDPS_WindU_IsbL-0250_RLatLon0.09_PT064H.grib2 2026-04-18 20:57 439K
20260418T18Z_MSC_RDPS_WindU_IsbL-0275_RLatLon0.09_PT064H.grib2 2026-04-18 20:57 451K
20260418T18Z_MSC_RDPS_WindU_IsbL-0300_RLatLon0.09_PT064H.grib2 2026-04-18 20:57 346K
20260418T18Z_MSC_RDPS_WindU_IsbL-0350_RLatLon0.09_PT064H.grib2 2026-04-18 20:57 355K
20260418T18Z_MSC_RDPS_WindU_IsbL-0400_RLatLon0.09_PT064H.grib2 2026-04-18 20:57 462K
20260418T18Z_MSC_RDPS_WindU_IsbL-0450_RLatLon0.09_PT064H.grib2 2026-04-18 20:57 465K
20260418T18Z_MSC_RDPS_WindU_IsbL-0500_RLatLon0.09_PT064H.grib2 2026-04-18 20:57 470K
20260418T18Z_MSC_RDPS_WindU_IsbL-0550_RLatLon0.09_PT064H.grib2 2026-04-18 20:57 475K
20260418T18Z_MSC_RDPS_WindU_IsbL-0600_RLatLon0.09_PT064H.grib2 2026-04-18 20:57 484K
20260418T18Z_MSC_RDPS_WindU_IsbL-0650_RLatLon0.09_PT064H.grib2 2026-04-18 20:57 501K
20260418T18Z_MSC_RDPS_WindU_IsbL-0700_RLatLon0.09_PT064H.grib2 2026-04-18 20:57 522K
20260418T18Z_MSC_RDPS_WindU_IsbL-0750_RLatLon0.09_PT064H.grib2 2026-04-18 20:57 549K
20260418T18Z_MSC_RDPS_WindU_IsbL-0800_RLatLon0.09_PT064H.grib2 2026-04-18 20:57 592K
20260418T18Z_MSC_RDPS_WindU_IsbL-0850_RLatLon0.09_PT064H.grib2 2026-04-18 20:57 638K
20260418T18Z_MSC_RDPS_WindU_IsbL-0875_RLatLon0.09_PT064H.grib2 2026-04-18 20:57 656K
20260418T18Z_MSC_RDPS_WindU_IsbL-0900_RLatLon0.09_PT064H.grib2 2026-04-18 20:57 666K
20260418T18Z_MSC_RDPS_WindU_IsbL-0925_RLatLon0.09_PT064H.grib2 2026-04-18 20:57 673K
20260418T18Z_MSC_RDPS_WindU_IsbL-0950_RLatLon0.09_PT064H.grib2 2026-04-18 20:57 666K
20260418T18Z_MSC_RDPS_WindU_IsbL-0970_RLatLon0.09_PT064H.grib2 2026-04-18 20:57 665K
20260418T18Z_MSC_RDPS_WindU_IsbL-0985_RLatLon0.09_PT064H.grib2 2026-04-18 20:57 805K
20260418T18Z_MSC_RDPS_WindU_IsbL-1000_RLatLon0.09_PT064H.grib2 2026-04-18 20:57 803K
20260418T18Z_MSC_RDPS_WindU_IsbL-1015_RLatLon0.09_PT064H.grib2 2026-04-18 20:57 797K
20260418T18Z_MSC_RDPS_WindV_AGL-10m_RLatLon0.09_PT064H.grib2 2026-04-18 20:57 440K
20260418T18Z_MSC_RDPS_WindV_AGL-120m_RLatLon0.09_PT064H.grib2 2026-04-18 20:57 546K
20260418T18Z_MSC_RDPS_WindV_AGL-40m_RLatLon0.09_PT064H.grib2 2026-04-18 20:57 551K
20260418T18Z_MSC_RDPS_WindV_AGL-80m_RLatLon0.09_PT064H.grib2 2026-04-18 20:57 548K
20260418T18Z_MSC_RDPS_WindV_IsbL-0001_RLatLon0.09_PT064H.grib2 2026-04-18 20:57 287K
20260418T18Z_MSC_RDPS_WindV_IsbL-0005_RLatLon0.09_PT064H.grib2 2026-04-18 20:57 328K
20260418T18Z_MSC_RDPS_WindV_IsbL-0010_RLatLon0.09_PT064H.grib2 2026-04-18 20:57 344K
20260418T18Z_MSC_RDPS_WindV_IsbL-0020_RLatLon0.09_PT064H.grib2 2026-04-18 20:57 329K
20260418T18Z_MSC_RDPS_WindV_IsbL-0030_RLatLon0.09_PT064H.grib2 2026-04-18 20:57 328K
20260418T18Z_MSC_RDPS_WindV_IsbL-0050_RLatLon0.09_PT064H.grib2 2026-04-18 20:57 366K
20260418T18Z_MSC_RDPS_WindV_IsbL-0100_RLatLon0.09_PT064H.grib2 2026-04-18 20:57 344K
20260418T18Z_MSC_RDPS_WindV_IsbL-0150_RLatLon0.09_PT064H.grib2 2026-04-18 20:57 395K
20260418T18Z_MSC_RDPS_WindV_IsbL-0175_RLatLon0.09_PT064H.grib2 2026-04-18 20:57 418K
20260418T18Z_MSC_RDPS_WindV_IsbL-0200_RLatLon0.09_PT064H.grib2 2026-04-18 20:57 337K
20260418T18Z_MSC_RDPS_WindV_IsbL-0225_RLatLon0.09_PT064H.grib2 2026-04-18 20:57 339K
20260418T18Z_MSC_RDPS_WindV_IsbL-0250_RLatLon0.09_PT064H.grib2 2026-04-18 20:57 338K
20260418T18Z_MSC_RDPS_WindV_IsbL-0275_RLatLon0.09_PT064H.grib2 2026-04-18 20:57 373K
20260418T18Z_MSC_RDPS_WindV_IsbL-0300_RLatLon0.09_PT064H.grib2 2026-04-18 20:57 369K
20260418T18Z_MSC_RDPS_WindV_IsbL-0350_RLatLon0.09_PT064H.grib2 2026-04-18 20:57 379K
20260418T18Z_MSC_RDPS_WindV_IsbL-0400_RLatLon0.09_PT064H.grib2 2026-04-18 20:57 382K
20260418T18Z_MSC_RDPS_WindV_IsbL-0450_RLatLon0.09_PT064H.grib2 2026-04-18 20:57 360K
20260418T18Z_MSC_RDPS_WindV_IsbL-0500_RLatLon0.09_PT064H.grib2 2026-04-18 20:57 364K
20260418T18Z_MSC_RDPS_WindV_IsbL-0550_RLatLon0.09_PT064H.grib2 2026-04-18 20:57 473K
20260418T18Z_MSC_RDPS_WindV_IsbL-0600_RLatLon0.09_PT064H.grib2 2026-04-18 20:57 482K
20260418T18Z_MSC_RDPS_WindV_IsbL-0650_RLatLon0.09_PT064H.grib2 2026-04-18 20:57 499K
20260418T18Z_MSC_RDPS_WindV_IsbL-0700_RLatLon0.09_PT064H.grib2 2026-04-18 20:57 519K
20260418T18Z_MSC_RDPS_WindV_IsbL-0750_RLatLon0.09_PT064H.grib2 2026-04-18 20:57 533K
20260418T18Z_MSC_RDPS_WindV_IsbL-0800_RLatLon0.09_PT064H.grib2 2026-04-18 20:57 578K
20260418T18Z_MSC_RDPS_WindV_IsbL-0850_RLatLon0.09_PT064H.grib2 2026-04-18 20:57 629K
20260418T18Z_MSC_RDPS_WindV_IsbL-0875_RLatLon0.09_PT064H.grib2 2026-04-18 20:57 646K
20260418T18Z_MSC_RDPS_WindV_IsbL-0900_RLatLon0.09_PT064H.grib2 2026-04-18 20:57 656K
20260418T18Z_MSC_RDPS_WindV_IsbL-0925_RLatLon0.09_PT064H.grib2 2026-04-18 20:57 664K
20260418T18Z_MSC_RDPS_WindV_IsbL-0950_RLatLon0.09_PT064H.grib2 2026-04-18 20:57 662K
20260418T18Z_MSC_RDPS_WindV_IsbL-0970_RLatLon0.09_PT064H.grib2 2026-04-18 20:57 664K
20260418T18Z_MSC_RDPS_WindV_IsbL-0985_RLatLon0.09_PT064H.grib2 2026-04-18 20:57 663K
20260418T18Z_MSC_RDPS_WindV_IsbL-1000_RLatLon0.09_PT064H.grib2 2026-04-18 20:57 802K
20260418T18Z_MSC_RDPS_WindV_IsbL-1015_RLatLon0.09_PT064H.grib2 2026-04-18 20:57 796K